Time,TemperatureF,DewpointF,PressureIn,WindDirection,WindDirectionDegrees,WindSpeedMPH,WindSpeedGustMPH,Humidity,HourlyPrecipIn,Conditions,Clouds,dailyrainin,SolarRadiationWatts/m^2,SoftwareType,DateUTC
2013-05-04 00:02:00,69.0,66.0,-100.00,NE,52,8.0,-999.0,90,0.00,,,-99.99,0.000000,,2013-05-04 04:02:00,
2013-05-04 00:13:00,69.0,66.0,-100.00,NE,52,10.0,-999.0,89,0.00,,,-99.99,0.000000,,2013-05-04 04:13:00,
2013-05-04 00:22:00,69.0,66.0,-100.00,NE,52,10.0,-999.0,89,0.00,,,-99.99,0.000000,,2013-05-04 04:22:00,
2013-05-04 00:33:00,69.0,66.0,-100.00,NE,52,10.0,-999.0,89,0.00,,,-99.99,0.000000,,2013-05-04 04:33:00,
2013-05-04 00:42:00,69.0,66.0,-100.00,NE,53,10.0,-999.0,90,0.00,,,-99.99,0.000000,,2013-05-04 04:42:00,
2013-05-04 00:52:00,69.0,66.0,-100.00,NE,53,10.0,-999.0,90,0.00,,,-99.99,0.000000,,2013-05-04 04:52:00,
2013-05-04 01:02:00,69.0,66.0,-100.00,ENE,59,8.0,-999.0,90,0.00,,,-99.99,0.000000,,2013-05-04 05:02:00,
2013-05-04 01:12:00,69.0,66.0,-100.00,NE,54,10.0,-999.0,89,0.00,,,-99.99,0.000000,,2013-05-04 05:12:00,
2013-05-04 01:22:00,69.0,66.0,-100.00,NE,54,10.0,-999.0,89,0.00,,,-99.99,0.000000,,2013-05-04 05:22:00,
2013-05-04 01:32:00,69.0,66.0,-100.00,NE,53,8.0,-999.0,89,0.00,,,-99.99,0.000000,,2013-05-04 05:32:00,
2013-05-04 01:42:00,69.0,66.0,-100.00,NE,53,8.0,-999.0,89,0.00,,,-99.99,0.000000,,2013-05-04 05:42:00,
2013-05-04 01:52:00,69.0,66.0,-100.00,NE,53,8.0,-999.0,89,0.00,,,-99.99,0.000000,,2013-05-04 05:52:00,
2013-05-04 02:01:00,69.0,66.0,-100.00,NE,48,8.0,-999.0,89,0.00,,,-99.99,0.000000,,2013-05-04 06:01:00,
2013-05-04 02:11:00,69.0,66.0,-100.00,NE,53,8.0,-999.0,89,0.00,,,-99.99,0.000000,,2013-05-04 06:11:00,
2013-05-04 02:22:00,69.0,66.0,-100.00,NE,53,8.0,-999.0,89,0.00,,,-99.99,0.000000,,2013-05-04 06:22:00,
2013-05-04 02:32:00,68.0,66.0,-100.00,NE,52,7.0,-999.0,91,0.00,,,-99.99,0.000000,,2013-05-04 06:32:00,
2013-05-04 02:42:00,67.0,65.0,-100.00,NE,44,5.0,-999.0,93,0.00,,,-99.99,0.000000,,2013-05-04 06:42:00,
2013-05-04 02:52:00,67.0,65.0,-100.00,NE,44,5.0,-999.0,93,0.00,,,-99.99,0.000000,,2013-05-04 06:52:00,
2013-05-04 03:01:00,67.0,65.0,-100.00,NE,44,6.0,-999.0,94,0.00,,,-99.99,0.000000,,2013-05-04 07:01:00,
2013-05-04 03:11:00,67.0,66.0,-100.00,NE,43,4.0,-999.0,95,0.00,,,-99.99,0.000000,,2013-05-04 07:11:00,
2013-05-04 03:21:00,67.0,66.0,-100.00,NE,43,4.0,-999.0,95,0.00,,,-99.99,0.000000,,2013-05-04 07:21:00,
2013-05-04 03:32:00,67.0,66.0,-100.00,NE,49,5.0,-999.0,95,0.00,,,-99.99,0.000000,,2013-05-04 07:32:00,
2013-05-04 03:42:00,67.0,66.0,-100.00,NE,44,5.0,-999.0,95,0.00,,,-99.99,0.000000,,2013-05-04 07:42:00,
2013-05-04 03:52:00,67.0,66.0,-100.00,NE,44,5.0,-999.0,95,0.00,,,-99.99,0.000000,,2013-05-04 07:52:00,
2013-05-04 04:01:00,67.0,66.0,-100.00,NE,44,5.0,-999.0,95,0.00,,,-99.99,0.000000,,2013-05-04 08:01:00,
2013-05-04 04:11:00,67.0,66.0,-100.00,NE,42,4.0,-999.0,95,0.00,,,-99.99,0.000000,,2013-05-04 08:11:00,
2013-05-04 04:21:00,68.0,66.0,-100.00,NE,43,5.0,-999.0,95,0.00,,,-99.99,0.000000,,2013-05-04 08:21:00,
2013-05-04 04:32:00,68.0,67.0,-100.00,NE,49,5.0,-999.0,95,0.00,,,-99.99,0.000000,,2013-05-04 08:32:00,
2013-05-04 04:42:00,68.0,67.0,-100.00,NE,48,5.0,-999.0,95,0.00,,,-99.99,0.000000,,2013-05-04 08:42:00,
2013-05-04 04:52:00,68.0,67.0,-100.00,NE,48,5.0,-999.0,95,0.00,,,-99.99,0.000000,,2013-05-04 08:52:00,
2013-05-04 05:02:00,68.0,67.0,-100.00,NE,46,5.0,-999.0,95,0.00,,,-99.99,0.000000,,2013-05-04 09:02:00,
2013-05-04 05:11:00,68.0,67.0,-100.00,NE,49,4.0,-999.0,95,0.00,,,-99.99,0.000000,,2013-05-04 09:11:00,
2013-05-04 05:22:00,68.0,67.0,-100.00,NE,49,4.0,-999.0,95,0.00,,,-99.99,0.000000,,2013-05-04 09:22:00,
2013-05-04 05:32:00,68.0,67.0,-100.00,NE,49,4.0,-999.0,95,0.00,,,-99.99,0.000000,,2013-05-04 09:32:00,
2013-05-04 05:42:00,68.0,67.0,-100.00,NE,40,3.0,-999.0,96,0.00,,,-99.99,0.000000,,2013-05-04 09:42:00,
2013-05-04 05:53:00,68.0,67.0,-100.00,NE,41,3.0,-999.0,96,0.00,,,-99.99,0.000000,,2013-05-04 09:53:00,
2013-05-04 06:03:00,69.0,67.0,-100.00,NNE,33,3.0,-999.0,96,0.00,,,-99.99,0.000000,,2013-05-04 10:03:00,
2013-05-04 06:12:00,69.0,67.0,-100.00,NE,43,3.0,-999.0,96,0.00,,,-99.99,0.000000,,2013-05-04 10:12:00,
2013-05-04 06:23:00,69.0,67.0,-100.00,NE,43,3.0,-999.0,96,0.00,,,-99.99,0.000000,,2013-05-04 10:23:00,
2013-05-04 06:33:00,69.0,67.0,-100.00,NNE,23,2.0,-999.0,96,0.00,,,-99.99,0.000000,,2013-05-04 10:33:00,
2013-05-04 06:42:00,68.0,67.0,-100.00,NE,40,2.0,-999.0,96,0.00,,,-99.99,0.000000,,2013-05-04 10:42:00,
2013-05-04 06:53:00,68.0,67.0,-100.00,NE,40,2.0,-999.0,96,0.00,,,-99.99,0.000000,,2013-05-04 10:53:00,
2013-05-04 07:02:00,69.0,67.0,-100.00,NE,37,4.0,-999.0,96,0.00,,,-99.99,0.700000,,2013-05-04 11:02:00,
2013-05-04 07:11:00,69.0,68.0,-100.00,NE,36,4.0,-999.0,96,0.00,,,-99.99,3.300000,,2013-05-04 11:11:00,
2013-05-04 07:21:00,69.0,68.0,-100.00,NE,36,4.0,-999.0,96,0.00,,,-99.99,3.300000,,2013-05-04 11:21:00,
2013-05-04 07:32:00,69.0,68.0,-100.00,NE,47,3.0,-999.0,96,0.00,,,-99.99,11.700000,,2013-05-04 11:32:00,
2013-05-04 08:03:00,69.0,68.0,-100.00,NNE,31,2.0,-999.0,96,0.00,,,-99.99,13.700000,,2013-05-04 12:03:00,
2013-05-04 08:14:00,69.0,68.0,-100.00,North,7,1.0,-999.0,96,0.00,,,-99.99,22.700001,,2013-05-04 12:14:00,
2013-05-04 08:30:00,69.0,68.0,-100.00,NE,41,2.0,-999.0,96,0.00,,,-99.99,52.900002,,2013-05-04 12:30:00,
2013-05-04 08:36:00,70.0,69.0,-100.00,NNE,31,3.0,-999.0,95,0.00,,,-99.99,166.899994,,2013-05-04 12:36:00,
2013-05-04 08:42:00,72.0,70.0,-100.00,NE,48,3.0,-999.0,94,0.00,,,-99.99,260.899994,,2013-05-04 12:42:00,
2013-05-04 08:52:00,72.0,70.0,-100.00,NE,48,3.0,-999.0,94,0.00,,,-99.99,260.899994,,2013-05-04 12:52:00,
2013-05-04 09:01:00,71.0,69.0,-100.00,NE,49,4.0,-999.0,93,0.00,,,-99.99,128.800003,,2013-05-04 13:01:00,
2013-05-04 09:11:00,72.0,70.0,-100.00,NE,53,4.0,-999.0,93,0.00,,,-99.99,265.100006,,2013-05-04 13:11:00,
2013-05-04 09:21:00,72.0,70.0,-100.00,NE,53,4.0,-999.0,93,0.00,,,-99.99,265.100006,,2013-05-04 13:21:00,
2013-05-04 09:32:00,73.0,70.0,-100.00,NE,43,3.0,-999.0,91,0.00,,,-99.99,240.199997,,2013-05-04 13:32:00,
2013-05-04 09:42:00,74.0,70.0,-100.00,NE,54,3.0,-999.0,89,0.00,,,-99.99,428.600006,,2013-05-04 13:42:00,
2013-05-04 09:52:00,74.0,70.0,-100.00,NE,54,3.0,-999.0,89,0.00,,,-99.99,428.600006,,2013-05-04 13:52:00,
2013-05-04 10:02:00,74.0,70.0,-100.00,NE,52,3.0,-999.0,87,0.00,,,-99.99,338.899994,,2013-05-04 14:02:00,
2013-05-04 10:11:00,75.0,70.0,-100.00,NNE,19,3.0,-999.0,86,0.00,,,-99.99,515.099976,,2013-05-04 14:11:00,
2013-05-04 10:21:00,75.0,70.0,-100.00,NNE,19,3.0,-999.0,86,0.00,,,-99.99,515.099976,,2013-05-04 14:21:00,
2013-05-04 10:32:00,77.0,71.0,-100.00,NNW,344,2.0,-999.0,82,0.00,,,-99.99,509.500000,,2013-05-04 14:32:00,
2013-05-04 10:42:00,77.0,70.0,-100.00,NE,41,2.0,-999.0,80,0.00,,,-99.99,603.700012,,2013-05-04 14:42:00,
2013-05-04 10:52:00,77.0,70.0,-100.00,NE,41,2.0,-999.0,80,0.00,,,-99.99,603.700012,,2013-05-04 14:52:00,
2013-05-04 11:02:00,76.0,70.0,-100.00,NNE,31,3.0,-999.0,81,0.00,,,-99.99,307.100006,,2013-05-04 15:02:00,
2013-05-04 11:12:00,76.0,70.0,-100.00,NNE,22,2.0,-999.0,81,0.00,,,-99.99,280.299988,,2013-05-04 15:12:00,
2013-05-04 11:22:00,76.0,70.0,-100.00,NNE,22,2.0,-999.0,81,0.00,,,-99.99,280.299988,,2013-05-04 15:22:00,
2013-05-04 11:33:00,76.0,70.0,-100.00,NNE,22,2.0,-999.0,81,0.00,,,-99.99,280.299988,,2013-05-04 15:33:00,
2013-05-04 11:43:00,77.0,71.0,-100.00,North,1,2.0,-999.0,82,0.00,,,-99.99,337.399994,,2013-05-04 15:43:00,
2013-05-04 11:53:00,77.0,71.0,-100.00,North,1,2.0,-999.0,82,0.00,,,-99.99,337.399994,,2013-05-04 15:53:00,
2013-05-04 12:03:00,77.0,71.0,-100.00,WNW,290,2.0,-999.0,82,0.00,,,-99.99,373.500000,,2013-05-04 16:03:00,
2013-05-04 12:12:00,78.0,71.0,-100.00,SW,236,2.0,-999.0,79,0.00,,,-99.99,429.500000,,2013-05-04 16:12:00,
2013-05-04 12:22:00,78.0,71.0,-100.00,SW,236,2.0,-999.0,79,0.00,,,-99.99,429.500000,,2013-05-04 16:22:00,
2013-05-04 12:33:00,78.0,71.0,-100.00,WSW,252,2.0,-999.0,78,0.00,,,-99.99,320.799988,,2013-05-04 16:33:00,
2013-05-04 12:42:00,78.0,70.0,-100.00,ESE,109,3.0,-999.0,77,0.00,,,-99.99,545.299988,,2013-05-04 16:42:00,
2013-05-04 12:52:00,78.0,70.0,-100.00,ESE,109,3.0,-999.0,77,0.00,,,-99.99,545.299988,,2013-05-04 16:52:00,
2013-05-04 13:02:00,80.0,71.0,-100.00,ESE,110,2.0,-999.0,73,0.00,,,-99.99,948.000000,,2013-05-04 17:02:00,
2013-05-04 13:12:00,79.0,70.0,-100.00,North,359,1.0,-999.0,75,0.00,,,-99.99,334.600006,,2013-05-04 17:12:00,
2013-05-04 13:22:00,79.0,70.0,-100.00,North,359,1.0,-999.0,75,0.00,,,-99.99,334.600006,,2013-05-04 17:22:00,
2013-05-04 13:32:00,81.0,71.0,-100.00,ESE,102,2.0,-999.0,72,0.00,,,-99.99,871.000000,,2013-05-04 17:32:00,
2013-05-04 13:42:00,80.0,71.0,-100.00,SW,233,2.0,-999.0,72,0.00,,,-99.99,737.000000,,2013-05-04 17:42:00,
2013-05-04 13:52:00,80.0,71.0,-100.00,SW,233,2.0,-999.0,72,0.00,,,-99.99,737.000000,,2013-05-04 17:52:00,
2013-05-04 14:01:00,82.0,71.0,-100.00,West,266,2.0,-999.0,70,0.00,,,-99.99,472.100006,,2013-05-04 18:01:00,
2013-05-04 14:12:00,82.0,72.0,-100.00,WSW,256,2.0,-999.0,71,0.00,,,-99.99,757.000000,,2013-05-04 18:12:00,
2013-05-04 14:22:00,82.0,72.0,-100.00,WSW,256,2.0,-999.0,71,0.00,,,-99.99,757.000000,,2013-05-04 18:22:00,
2013-05-04 14:32:00,84.0,72.0,-100.00,WSW,253,3.0,-999.0,65,0.00,,,-99.99,986.000000,,2013-05-04 18:32:00,
2013-05-04 14:42:00,84.0,72.0,-100.00,WSW,253,3.0,-999.0,65,0.00,,,-99.99,986.000000,,2013-05-04 18:42:00,
2013-05-04 14:52:00,86.0,72.0,-100.00,West,261,3.0,-999.0,64,0.00,,,-99.99,1129.000000,,2013-05-04 18:52:00,
2013-05-04 15:01:00,84.0,71.0,-100.00,WNW,282,2.0,-999.0,65,0.00,,,-99.99,303.399994,,2013-05-04 19:01:00,
2013-05-04 15:11:00,82.0,71.0,-100.00,West,272,2.0,-999.0,68,0.00,,,-99.99,316.799988,,2013-05-04 19:11:00,
2013-05-04 15:21:00,82.0,71.0,-100.00,West,272,2.0,-999.0,68,0.00,,,-99.99,316.799988,,2013-05-04 19:21:00,
2013-05-04 15:32:00,81.0,71.0,-100.00,WNW,301,2.0,-999.0,72,0.00,,,-99.99,248.199997,,2013-05-04 19:32:00,
2013-05-04 15:42:00,81.0,71.0,-100.00,WNW,288,2.0,-999.0,72,0.00,,,-99.99,301.600006,,2013-05-04 19:42:00,
2013-05-04 15:52:00,81.0,71.0,-100.00,WNW,288,2.0,-999.0,72,0.00,,,-99.99,301.600006,,2013-05-04 19:52:00,
2013-05-04 16:02:00,81.0,71.0,-100.00,West,281,2.0,-999.0,71,0.00,,,-99.99,223.500000,,2013-05-04 20:02:00,
2013-05-04 16:11:00,81.0,71.0,-100.00,West,281,2.0,-999.0,71,0.00,,,-99.99,223.500000,,2013-05-04 20:11:00,
2013-05-04 16:22:00,81.0,71.0,-100.00,West,280,2.0,-999.0,73,0.00,,,-99.99,218.699997,,2013-05-04 20:22:00,
2013-05-04 16:32:00,80.0,72.0,-100.00,West,268,2.0,-999.0,75,0.00,,,-99.99,186.800003,,2013-05-04 20:32:00,
2013-05-04 16:42:00,80.0,72.0,-100.00,West,265,2.0,-999.0,78,0.00,,,-99.99,149.399994,,2013-05-04 20:42:00,
2013-05-04 16:52:00,80.0,72.0,-100.00,West,265,2.0,-999.0,78,0.00,,,-99.99,149.399994,,2013-05-04 20:52:00,
2013-05-04 17:02:00,79.0,72.0,-100.00,WNW,287,2.0,-999.0,78,0.00,,,-99.99,330.100006,,2013-05-04 21:02:00,
2013-05-04 17:12:00,81.0,73.0,-100.00,West,273,3.0,-999.0,75,0.00,,,-99.99,489.700012,,2013-05-04 21:12:00,
2013-05-04 17:22:00,81.0,73.0,-100.00,West,273,3.0,-999.0,75,0.00,,,-99.99,489.700012,,2013-05-04 21:22:00,
2013-05-04 17:33:00,83.0,72.0,-100.00,West,261,2.0,-999.0,70,0.00,,,-99.99,446.000000,,2013-05-04 21:33:00,
2013-05-04 17:43:00,81.0,71.0,-100.00,West,270,2.0,-999.0,73,0.00,,,-99.99,175.500000,,2013-05-04 21:43:00,
2013-05-04 17:53:00,81.0,71.0,-100.00,West,270,2.0,-999.0,73,0.00,,,-99.99,175.500000,,2013-05-04 21:53:00,
2013-05-04 18:03:00,81.0,71.0,-100.00,West,259,2.0,-999.0,73,0.00,,,-99.99,213.100006,,2013-05-04 22:03:00,
2013-05-04 18:12:00,80.0,72.0,-100.00,WSW,246,2.0,-999.0,74,0.00,,,-99.99,251.899994,,2013-05-04 22:12:00,
2013-05-04 18:22:00,80.0,72.0,-100.00,WSW,246,2.0,-999.0,74,0.00,,,-99.99,251.899994,,2013-05-04 22:22:00,
2013-05-04 18:33:00,80.0,72.0,-100.00,West,265,1.0,-999.0,76,0.00,,,-99.99,124.800003,,2013-05-04 22:33:00,
2013-05-04 18:42:00,80.0,72.0,-100.00,West,264,1.0,-999.0,76,0.00,,,-99.99,142.399994,,2013-05-04 22:42:00,
2013-05-04 18:52:00,80.0,72.0,-100.00,West,264,1.0,-999.0,76,0.00,,,-99.99,142.399994,,2013-05-04 22:52:00,
2013-05-04 19:02:00,79.0,71.0,-100.00,West,280,1.0,-999.0,77,0.00,,,-99.99,87.199997,,2013-05-04 23:02:00,
2013-05-04 19:12:00,79.0,71.0,-100.00,West,259,1.0,-999.0,77,0.00,,,-99.99,86.000000,,2013-05-04 23:12:00,
2013-05-04 19:22:00,79.0,71.0,-100.00,West,259,1.0,-999.0,77,0.00,,,-99.99,86.000000,,2013-05-04 23:22:00,
2013-05-04 19:32:00,78.0,71.0,-100.00,West,278,1.0,-999.0,79,0.00,,,-99.99,59.299999,,2013-05-04 23:32:00,
2013-05-04 19:42:00,78.0,71.0,-100.00,WNW,302,1.0,-999.0,80,0.00,,,-99.99,30.000000,,2013-05-04 23:42:00,
2013-05-04 19:52:00,78.0,71.0,-100.00,WNW,302,1.0,-999.0,80,0.00,,,-99.99,30.000000,,2013-05-04 23:52:00,
2013-05-04 20:02:00,77.0,71.0,-100.00,West,272,1.0,-999.0,82,0.00,,,-99.99,26.000000,,2013-05-05 00:02:00,
2013-05-04 20:11:00,77.0,71.0,-100.00,WSW,244,2.0,-999.0,82,0.00,,,-99.99,9.400000,,2013-05-05 00:11:00,
2013-05-04 20:21:00,77.0,71.0,-100.00,WSW,244,2.0,-999.0,82,0.00,,,-99.99,9.400000,,2013-05-05 00:21:00,
2013-05-04 20:32:00,76.0,70.0,-100.00,SW,232,2.0,-999.0,81,0.00,,,-99.99,2.600000,,2013-05-05 00:32:00,
2013-05-04 20:42:00,75.0,70.0,-100.00,SW,224,1.0,-999.0,84,0.00,,,-99.99,0.200000,,2013-05-05 00:42:00,
2013-05-04 20:52:00,75.0,70.0,-100.00,SW,224,1.0,-999.0,84,0.00,,,-99.99,0.200000,,2013-05-05 00:52:00,
2013-05-04 21:01:00,75.0,70.0,-100.00,SW,224,1.0,-999.0,84,0.00,,,-99.99,0.200000,,2013-05-05 01:01:00,
2013-05-04 21:11:00,74.0,69.0,-100.00,WSW,240,3.0,-999.0,86,0.00,,,-99.99,0.000000,,2013-05-05 01:11:00,
2013-05-04 21:21:00,74.0,69.0,-100.00,WSW,240,3.0,-999.0,86,0.00,,,-99.99,0.000000,,2013-05-05 01:21:00,
2013-05-04 21:32:00,73.0,69.0,-100.00,SW,225,2.0,-999.0,87,0.00,,,-99.99,0.000000,,2013-05-05 01:32:00,
2013-05-04 21:42:00,72.0,69.0,-100.00,WSW,253,1.0,-999.0,88,0.00,,,-99.99,0.000000,,2013-05-05 01:42:00,
2013-05-04 21:52:00,72.0,69.0,-100.00,WSW,253,1.0,-999.0,88,0.00,,,-99.99,0.000000,,2013-05-05 01:52:00,
2013-05-04 22:02:00,72.0,69.0,-100.00,West,264,2.0,-999.0,90,0.00,,,-99.99,0.000000,,2013-05-05 02:02:00,
2013-05-04 22:12:00,72.0,69.0,-100.00,West,273,2.0,-999.0,91,0.00,,,-99.99,0.000000,,2013-05-05 02:12:00,
2013-05-04 22:22:00,72.0,69.0,-100.00,West,273,2.0,-999.0,91,0.00,,,-99.99,0.000000,,2013-05-05 02:22:00,
2013-05-04 22:32:00,71.0,69.0,-100.00,WSW,245,1.0,-999.0,91,0.00,,,-99.99,0.000000,,2013-05-05 02:32:00,
2013-05-04 22:42:00,71.0,68.0,-100.00,SSW,203,1.0,-999.0,91,0.00,,,-99.99,0.000000,,2013-05-05 02:42:00,
2013-05-04 22:52:00,71.0,68.0,-100.00,SSW,203,1.0,-999.0,91,0.00,,,-99.99,0.000000,,2013-05-05 02:52:00,
2013-05-04 23:01:00,70.0,68.0,-100.00,SSW,195,1.0,-999.0,92,0.00,,,-99.99,0.000000,,2013-05-05 03:01:00,
2013-05-04 23:11:00,69.0,67.0,-100.00,SSE,161,1.0,-999.0,93,0.00,,,-99.99,0.000000,,2013-05-05 03:11:00,
2013-05-04 23:22:00,69.0,67.0,-100.00,SSE,161,1.0,-999.0,93,0.00,,,-99.99,0.000000,,2013-05-05 03:22:00,
2013-05-04 23:33:00,69.0,67.0,-100.00,WSW,241,1.0,-999.0,94,0.00,,,-99.99,0.000000,,2013-05-05 03:33:00,
2013-05-04 23:42:00,69.0,67.0,-100.00,WSW,254,2.0,-999.0,94,0.00,,,-99.99,0.000000,,2013-05-05 03:42:00,
2013-05-04 23:53:00,69.0,67.0,-100.00,WSW,254,2.0,-999.0,94,0.00,,,-99.99,0.000000,,2013-05-05 03:53:00,